Location: Eexterzandvoort
(53.0303°N, 6.7884°E)
Time: 23:31:44
(UTC+00:00)

Cosmos 2084 Rocket - Pass Details

Date: 19 May 2025
Orbit: 543 x 578 km, 62.8° (Epoch: 22 June)

Event Time Altitude Azimuth Distance (km) Brightness Sun altitude
Rises 21:54:50 0° 228° (SW) 2,780 6.7 -14.2°
Reaches altitude 10° 21:57:04 10° 229° (SW) 1,881 5.8 -14.3°
Maximum altitude 22:01:20 86° 319° (NW) 579 3.4 -14.5°
Drops below altitude 10° 22:05:34 10° 48° (NE) 1,873 6.3 -14.8°
Sets 22:07:47 0° 49° (NE) 2,767 7.2 -14.9°
